Theta_e
320 316 321 322 311 309 303 305 309 308 309 320 320 318 317 319 317 312 337 339 337 340 344 347 345 345 344 344 346 346 344 341 341 341 343 346 345 345 344 342 342 339 339 339 337 336 336 336 334
314 315 322 318 307 300 303 308 306 309 311 314 319 321 319 318 329 330 334 338 338 340 343 344 343 345 344 344 346 346 343 342 340 341 346 346 345 344 342 341 340 338 337 338 336 335 335 335 335
312 316 314 311 306 302 302 306 307 310 313 314 317 324 323 322 329 333 339 338 338 340 343 342 343 345 344 344 345 346 344 343 344 345 345 345 344 342 341 340 339 337 336 336 335 335 334 334 333
317 318 315 303 300 304 304 302 304 307 310 312 312 317 326 332 332 336 339 339 338 340 342 342 344 345 344 343 345 345 345 344 345 344 345 344 342 340 339 338 338 337 335 334 334 334 334 333 331
319 315 302 301 300 305 302 300 304 303 306 305 314 315 322 326 335 337 338 339 338 338 342 344 343 344 343 344 345 345 345 345 345 344 344 343 342 339 338 337 336 335 333 333 333 333 331 329 328
307 309 296 294 297 303 301 299 302 301 303 304 308 316 319 311 319 334 336 338 339 339 341 342 337 339 341 343 344 344 345 344 344 345 343 342 340 338 337 336 335 334 333 332 332 331 329 327 327
304 301 295 295 295 298 297 300 298 298 302 300 312 308 318 306 316 333 335 337 338 339 340 341 342 339 335 339 339 341 343 342 342 342 342 340 339 338 337 337 336 333 333 332 331 329 327 327 327
308 303 295 296 294 294 297 298 299 297 298 302 308 299 299 305 318 333 334 335 338 338 339 338 339 339 337 337 334 335 338 339 339 338 335 333 333 334 333 332 334 333 332 331 329 327 327 328 326
307 296 292 293 293 294 297 294 298 300 297 301 300 300 303 307 322 328 331 332 334 336 337 337 338 337 336 333 335 332 332 333 333 332 329 329 335 335 332 329 331 332 331 329 328 328 328 327 324
300 295 294 295 295 293 295 295 295 295 296 296 298 301 303 304 307 319 325 326 329 331 334 337 337 337 337 332 341 341 339 339 340 338 337 336 334 333 330 326 327 330 329 330 329 329 328 325 326
296 293 294 294 295 295 294 295 297 295 293 296 295 297 300 301 303 304 318 325 327 330 332 334 335 336 336 334 339 339 339 339 338 338 337 334 331 332 330 330 329 330 323 329 329 328 327 324 328
292 294 294 294 295 294 293 296 295 295 295 298 300 301 301 300 301 302 304 318 326 329 329 330 332 333 333 335 334 337 338 337 337 335 335 332 330 330 329 328 329 330 330 330 329 328 326 326 327
292 292 294 295 295 294 296 294 293 295 299 301 301 302 301 301 301 303 304 309 325 327 330 331 332 331 333 331 331 332 333 335 336 333 333 332 331 329 329 328 329 329 329 328 328 328 325 324 327
294 293 293 294 294 294 293 293 294 297 299 299 301 301 302 302 302 302 303 303 311 326 328 332 330 331 333 331 330 331 331 334 335 332 333 333 332 330 329 328 328 329 329 328 329 326 324 324 327
293 290 291 293 293 293 295 292 292 298 299 298 300 301 302 303 304 303 304 304 305 312 328 330 330 330 331 330 330 330 331 333 334 333 334 334 332 331 329 329 328 328 329 329 329 326 326 325 326
290 291 289 291 293 293 294 288 295 299 297 297 299 301 301 303 304 305 306 306 306 306 315 329 331 330 329 330 331 332 332 333 335 335 333 332 331 331 330 328 328 329 329 329 327 326 325 325 325
291 286 286 288 292 292 292 289 295 298 296 296 298 300 301 302 304 306 307 308 308 307 310 322 331 330 329 329 332 333 333 333 334 334 333 332 330 329 328 327 327 327 328 328 327 326 325 324 324
284 285 285 285 290 292 291 290 294 296 296 296 297 299 300 301 303 306 308 310 310 308 308 319 329 331 330 329 329 331 331 331 331 331 332 332 330 329 328 327 327 328 327 327 327 325 326 325 325
287 286 285 287 290 289 289 290 292 295 295 294 296 298 299 299 303 306 308 309 311 308 307 316 325 330 329 326 325 325 325 328 328 329 331 332 330 329 328 328 328 329 326 326 327 326 325 324 326
287 286 286 288 289 289 289 289 291 294 294 294 295 296 297 299 301 303 305 307 309 312 307 315 323 330 329 328 327 326 326 326 327 331 331 330 330 330 328 328 328 328 327 327 327 326 324 324 326
287 286 284 284 288 289 289 288 289 293 294 295 296 296 295 296 298 301 302 302 306 311 312 315 323 330 331 329 328 327 327 327 326 327 329 330 330 329 328 327 328 329 328 327 327 327 325 322 325
284 288 286 285 286 284 289 282 287 290 290 292 294 295 293 294 297 300 298 300 303 308 317 318 324 330 330 329 327 324 324 323 326 328 327 327 327 329 328 328 329 329 329 328 328 328 327 325 322
285 289 286 286 285 283 286 284 286 290 286 289 292 294 293 294 295 297 297 300 303 309 319 321 325 329 329 329 327 325 324 328 328 328 327 328 328 324 324 326 327 328 329 329 328 327 325 324 321
290 288 286 286 285 281 283 283 284 285 286 288 291 293 293 293 294 295 297 299 302 310 315 323 323 327 328 327 327 326 324 324 323 323 321 318 317 317 319 320 324 325 326 326 327 325 326 323 321
288 284 281 279 280 279 283 282 284 288 289 289 289 292 292 294 293 293 294 297 301 306 312 322 323 322 324 324 323 322 320 317 315 315 314 314 314 314 316 316 316 316 317 318 321 320 318 315 312
286 285 281 274 276 278 283 280 284 291 291 291 293 293 293 293 293 294 295 297 300 309 315 318 318 318 317 315 314 315 316 316 316 314 314 314 314 315 315 314 314 314 314 314 314 312 312 312 311
285 283 287 280 277 277 282 284 288 290 289 290 291 291 290 290 291 293 296 296 298 305 307 310 311 310 310 310 309 307 307 308 307 308 309 309 311 310 311 312 312 312 312 311 311 310 308 308 308
288 289 281 282 273 273 278 279 281 284 285 287 289 289 289 290 291 292 295 295 297 298 304 306 307 306 306 306 305 305 304 304 304 303 302 302 304 305 304 305 306 306 306 308 307 306 307 306 304
285 283 284 284 281 275 274 279 285 284 286 286 288 289 290 288 290 291 292 293 294 296 296 300 302 302 303 303 303 302 301 300 300 299 298 298 298 299 299 300 300 300 300 301 300 300 300 299 298
288 283 284 280 276 280 279 279 286 287 287 287 288 289 291 290 292 293 291 291 291 293 293 293 295 296 299 298 298 297 297 297 295 296 296 297 296 296 297 297 297 298 297 298 297 296 296 296 295
Wind_Speed
16 10 3 4 5 4 4 5 3 9 1 6 3 4 5 3 6 6 5 5 9 17 18 18 16 17 14 14 14 14 14 14 13 14 13 14 14 16 16 16 13 12 11 12 12 11 10 9 7
13 5 2 1 4 5 6 5 9 9 6 6 2 5 2 5 4 3 2 2 13 16 16 17 14 16 16 14 14 14 13 13 14 14 13 15 16 14 13 14 12 11 10 11 11 10 10 9 9
6 4 3 1 1 3 4 9 10 9 5 4 1 2 4 7 7 5 5 5 13 15 15 14 13 15 15 15 14 14 14 13 12 12 13 14 14 14 12 11 11 11 10 10 11 10 9 9 9
3 3 3 4 1 6 5 11 11 12 4 13 7 3 6 11 11 10 2 8 13 14 14 16 14 15 14 14 13 15 14 13 11 11 13 14 14 13 11 10 10 11 10 10 10 9 8 8 8
1 2 3 2 3 5 8 14 9 13 7 14 12 7 6 11 12 9 0 8 13 12 13 16 13 14 14 13 12 15 14 12 11 9 11 13 14 12 10 10 9 10 9 9 9 8 7 6 6
2 2 3 4 3 4 7 16 9 14 10 13 11 11 6 16 19 9 3 6 11 12 13 14 11 10 11 11 12 12 12 11 10 10 11 12 14 11 10 9 9 8 8 8 8 7 6 6 6
2 1 3 2 3 4 8 15 11 14 11 15 16 7 3 25 24 8 3 5 9 12 12 12 13 12 8 8 8 10 11 10 9 11 12 11 11 10 8 8 8 7 7 7 6 6 5 4 4
2 1 3 4 4 5 10 11 8 13 6 16 19 9 10 25 21 10 3 3 8 10 13 12 12 12 11 13 10 10 11 11 11 11 10 9 8 8 8 6 6 7 6 5 5 4 3 2 2
3 1 5 4 5 6 12 11 9 11 8 2 8 9 14 20 15 10 3 3 6 8 11 11 11 11 11 11 11 10 10 11 10 10 10 10 7 8 9 4 7 6 6 5 4 3 2 0 2
6 4 5 6 6 9 11 11 10 8 9 6 17 16 18 19 18 13 9 4 6 10 12 11 11 11 10 9 9 13 11 10 10 10 11 7 6 5 5 5 6 5 5 4 3 2 1 5 3
7 6 4 7 7 6 6 7 7 10 6 13 23 24 22 21 17 15 13 7 6 8 9 12 11 10 10 9 6 6 6 7 7 11 9 6 5 5 5 4 5 6 5 5 6 5 4 4 3
7 7 6 5 6 4 7 10 13 5 7 16 20 20 19 19 17 16 15 11 7 9 11 13 13 11 10 8 8 7 6 7 7 6 9 6 5 6 5 4 5 5 4 5 5 3 4 5 5
9 5 7 5 8 9 11 8 5 10 17 20 19 20 18 18 18 16 15 13 9 9 9 10 13 12 11 12 9 9 8 8 9 7 10 8 6 6 6 6 5 4 4 5 5 4 4 5 5
4 5 5 8 10 3 14 5 3 14 17 20 20 20 19 18 18 17 16 14 11 11 11 12 13 12 14 13 12 9 8 9 8 7 9 11 7 7 7 6 6 5 5 5 4 4 4 5 5
4 7 5 14 10 7 17 10 13 14 17 20 23 20 19 19 18 18 17 18 15 13 13 13 13 13 13 13 13 10 8 10 10 9 11 12 10 9 8 7 7 7 6 6 5 5 5 5 5
4 3 3 8 13 6 13 8 15 18 18 23 25 21 20 20 19 18 18 18 17 16 15 15 12 14 15 14 11 11 10 10 10 9 8 11 11 11 9 8 8 7 6 6 6 6 6 6 6
9 5 5 2 6 9 9 6 15 17 18 19 21 22 20 21 20 19 20 18 19 17 16 16 16 17 15 14 12 11 13 11 9 9 9 10 12 12 10 8 7 8 6 7 6 6 6 6 6
4 4 1 3 7 10 6 7 11 17 17 21 20 21 22 22 22 21 21 20 18 18 17 16 13 17 15 11 10 9 8 8 7 7 9 12 10 12 10 8 9 8 7 7 7 8 7 7 6
7 4 1 2 1 7 5 5 13 16 18 22 22 20 22 23 24 21 20 20 19 15 17 17 17 15 12 9 10 8 9 9 8 7 12 14 12 12 12 9 9 9 9 10 10 8 9 7 7
5 3 6 4 4 5 6 6 4 16 18 19 21 22 25 26 23 23 23 20 20 17 16 17 18 16 13 10 9 8 8 7 8 10 13 13 13 14 12 12 10 11 9 11 11 10 8 8 7
5 4 3 4 8 2 10 5 1 15 17 19 19 19 19 24 26 23 24 21 20 19 15 17 18 17 16 13 9 5 7 3 7 9 10 12 15 14 15 13 11 11 11 10 12 11 12 9 9
3 3 4 4 6 2 6 4 3 18 21 23 23 22 19 19 22 22 22 22 19 19 15 16 15 15 12 11 10 11 9 8 9 9 8 7 10 12 11 13 13 13 10 12 11 11 12 11 8
4 1 1 0 2 4 3 5 5 18 22 24 25 25 21 20 20 22 22 21 19 16 8 11 13 12 10 11 8 7 7 6 3 6 4 5 3 2 1 6 9 11 9 12 12 11 11 8 8
1 5 3 1 2 2 3 4 4 13 16 22 24 26 23 23 22 20 21 18 15 14 10 7 10 10 8 8 8 9 7 4 2 3 3 8 6 4 5 5 2 7 8 10 9 9 10 9 9
1 4 1 2 2 2 1 4 4 16 17 18 22 24 21 23 22 21 23 19 18 14 8 2 7 6 8 7 7 6 8 10 10 10 8 6 6 5 8 10 9 8 10 8 6 5 7 10 10
4 3 2 4 2 4 3 3 5 14 14 17 18 20 22 25 23 21 20 18 19 15 7 8 8 12 13 14 14 13 10 7 8 8 8 4 5 8 10 10 12 13 13 13 14 11 10 11 12
3 4 2 3 2 4 2 1 3 17 16 19 21 23 22 22 22 24 23 23 22 20 19 15 16 17 16 15 14 15 14 13 12 12 11 6 8 8 9 8 10 11 11 11 14 8 10 9 9
3 6 3 2 2 4 1 2 5 18 19 19 20 21 20 21 23 23 21 22 21 22 15 18 18 18 16 16 15 13 13 14 12 14 12 11 9 11 11 11 10 11 10 8 9 8 8 10 7
3 4 2 2 2 3 5 2 3 10 11 15 17 17 18 17 19 18 18 19 20 20 18 19 18 17 16 14 14 15 13 15 12 13 11 9 10 12 11 10 10 11 11 10 10 10 9 11 9
2 2 2 2 4 3 3 2 3 7 8 11 14 16 16 15 17 17 18 19 19 19 22 20 18 17 15 14 16 17 16 15 14 13 12 10 11 11 10 9 11 11 12 11 11 11 10 10 10
Wind_Direction
320 318 286 241 243 240 121 80 355 352 37 27 346 305 348 338 344 4 355 159 163 163 160 164 156 153 155 153 149 146 146 153 157 157 154 143 129 118 121 116 106 108 117 121 121 120 104 92 84
317 305 223 251 268 240 116 51 21 11 330 302 285 277 287 50 28 28 88 151 169 160 160 166 153 155 154 158 156 152 151 155 159 163 156 149 132 127 118 110 121 126 129 130 128 122 107 88 86
288 269 256 307 327 325 85 16 341 348 18 1 287 0 7 18 37 5 16 156 169 166 162 157 153 155 156 162 166 161 158 160 163 158 159 148 134 126 119 127 131 131 132 135 132 125 108 95 90
308 185 145 251 301 54 40 10 336 342 31 20 338 91 97 41 345 338 355 163 172 168 168 139 153 157 161 167 176 172 163 162 165 159 169 150 135 128 130 137 141 138 138 135 130 125 114 102 95
317 232 181 202 112 90 47 7 341 359 22 14 343 13 73 22 356 356 189 175 173 177 175 162 153 159 165 168 166 167 161 165 166 168 156 147 132 127 137 138 139 145 145 134 130 127 119 108 99
122 282 184 221 116 68 46 3 345 360 358 3 6 340 77 16 0 347 309 201 173 182 174 169 156 158 166 169 166 166 160 164 171 165 151 142 128 137 142 141 141 142 147 142 132 128 120 111 99
87 244 76 110 89 106 7 344 31 349 359 6 333 0 355 355 349 323 257 220 197 185 181 177 179 169 163 162 168 168 162 159 156 161 144 143 134 137 137 140 145 147 145 142 137 130 121 109 94
35 75 107 34 39 78 10 352 1 10 4 332 13 16 342 335 336 328 290 243 202 193 187 186 187 184 185 184 192 179 166 162 157 147 140 134 127 133 137 140 149 155 156 155 146 136 125 101 69
315 90 68 55 18 10 2 356 5 330 327 1 21 7 332 336 340 332 263 201 214 203 196 191 191 191 191 194 192 188 162 167 160 144 137 149 175 175 164 116 142 155 161 168 165 159 140 325 198
22 45 54 40 32 3 342 349 330 327 351 348 341 341 339 339 344 338 309 252 226 210 203 192 199 196 195 196 195 191 180 182 183 179 172 181 183 185 197 160 170 166 174 176 182 169 193 241 270
21 56 73 53 31 349 335 331 323 331 12 6 337 330 331 330 332 336 324 277 242 219 209 211 205 205 197 203 192 194 195 195 187 192 180 175 179 177 196 180 189 194 194 210 206 206 241 268 273
107 69 36 27 15 23 346 315 322 13 16 336 321 319 318 323 320 323 325 314 248 228 217 207 213 199 203 211 201 200 200 197 192 177 177 175 186 191 198 206 201 212 205 225 234 248 260 255 251
66 61 72 52 26 19 339 357 3 34 343 338 337 329 330 324 318 315 312 308 266 243 229 212 196 195 202 215 196 207 204 203 195 182 182 186 199 199 197 203 210 225 222 231 242 251 253 248 253
97 98 116 26 16 359 0 24 5 3 347 340 342 335 328 325 324 314 309 307 299 249 230 206 197 196 210 205 208 201 207 209 202 191 187 196 200 207 207 207 213 223 228 232 247 259 249 247 254
95 107 120 28 10 8 336 66 22 352 344 344 346 340 334 325 323 317 313 302 292 283 243 216 202 195 212 204 208 208 199 217 204 202 194 194 201 210 214 220 223 225 219 228 238 239 243 250 248
66 88 29 32 6 346 328 58 10 356 348 348 347 341 335 330 323 316 313 307 295 281 268 230 204 201 203 205 208 210 205 206 207 203 199 196 203 211 214 222 226 228 225 226 228 230 236 245 253
36 77 17 34 38 343 4 25 353 357 355 351 350 341 334 329 328 326 317 310 299 280 267 249 215 203 198 207 202 213 211 211 211 211 208 207 212 213 220 225 230 225 227 223 231 236 242 252 254
98 111 102 319 12 354 33 44 10 11 360 355 351 346 336 329 328 329 323 315 304 282 264 249 220 211 198 198 205 201 211 207 214 226 225 220 218 218 218 225 229 224 226 225 226 235 231 250 266
123 137 33 251 86 330 343 315 15 12 6 358 352 347 338 330 327 328 328 320 310 288 264 242 225 208 191 194 195 196 202 206 208 205 224 225 221 223 223 229 230 225 229 230 230 235 240 238 242
126 109 18 261 278 316 324 288 8 21 8 358 351 348 342 335 332 331 329 327 314 297 273 245 227 205 197 189 194 198 197 205 206 215 219 220 221 221 224 226 228 231 230 233 232 226 233 244 234
78 69 32 311 312 226 307 217 321 11 7 355 356 352 340 334 329 329 328 325 314 296 273 244 226 208 199 195 186 193 181 188 206 218 219 219 218 219 214 216 225 223 226 235 229 228 228 239 232
112 118 346 302 319 3 356 302 23 354 2 357 349 348 340 331 325 326 326 318 310 298 268 247 228 211 196 183 189 185 198 195 210 216 217 216 226 226 227 232 227 226 225 231 232 230 233 231 240
83 337 304 240 332 312 62 275 36 0 355 347 343 345 341 331 327 333 322 313 304 302 266 235 217 211 179 186 187 195 210 230 205 210 202 199 194 67 328 242 249 245 241 237 233 220 222 222 227
15 137 125 190 259 228 32 324 53 9 348 344 340 338 340 334 334 333 321 317 317 326 347 215 200 189 163 173 181 196 200 188 191 140 133 83 73 60 44 40 303 278 257 249 242 237 232 220 229
239 174 211 206 232 330 342 263 47 11 358 342 333 337 343 338 343 339 330 332 332 330 338 179 169 153 125 114 100 100 101 95 96 92 74 82 77 42 58 57 57 49 46 47 50 26 53 70 59
39 11 43 294 294 320 333 277 81 10 354 343 341 345 354 350 346 344 343 348 352 14 43 79 87 85 81 80 71 65 56 62 74 70 88 87 100 83 74 70 71 63 54 58 67 54 65 56 66
127 67 31 111 49 270 271 184 199 353 356 351 351 355 357 348 347 346 358 5 6 21 33 53 74 74 73 73 72 63 52 60 53 46 51 36 60 78 65 61 75 59 59 68 76 74 75 63 67
6 146 146 83 310 276 230 261 347 343 341 345 349 353 354 350 355 354 359 7 10 18 21 45 53 61 62 65 65 64 76 56 60 61 45 36 32 51 52 47 50 66 60 56 66 55 53 69 64
168 150 103 70 277 299 317 91 357 335 337 337 340 352 357 348 357 360 4 10 11 19 24 34 40 46 48 53 62 66 53 60 51 55 53 43 41 52 47 50 46 52 53 48 68 70 71 82 68
318 131 183 212 175 249 292 288 64 353 352 347 342 352 359 359 5 14 20 12 9 16 26 29 29 38 41 49 54 53 53 55 54 52 37 40 49 45 56 49 58 58 58 58 62 64 51 56 61